Location: Shenandoah County Park
(38.9356°N, 78.4524°W)
Time: 00:48:14
(UTC-05:00)

A-11 Canister half - Pass Details

Date: 11 December 2023
Orbit: 1526 x 1682 km, 47.3° (Epoch: 01 March)

Event Time Altitude Azimuth Distance (km) Brightness Sun altitude
Rises 18:50:55 0° 259° (W) 4,913 13.2 -22.4°
Reaches altitude 10° 18:54:08 10° 263° (W) 3,935 12.3 -23.1°
Maximum altitude 19:04:11 62° 343° (NNW) 1,853 9.3 -25.0°
Enters shadow 19:08:44 36° 49° (NE) 2,435 9.6 -25.8°
